Location: Arroyo de San Miguel
(40.9167°N, 4.6667°W)
Time: 01:26:45
(UTC+00:00)

Okean 1-7 Rocket - Pass Details

Date: 19 May 2025
Orbit: 611 x 643 km, 82.5° (Epoch: 24 June)

Event Time Altitude Azimuth Distance (km) Brightness Sun altitude
Rises 20:32:49 0° 346° (NNW) 2,885 7.9 -10.2°
Reaches altitude 10° 20:35:06 10° 341° (NNW) 1,975 7.1 -10.6°
Maximum altitude 20:39:18 48° 267° (W) 800 4.5 -11.2°
Drops below altitude 10° 20:43:29 10° 193° (SSW) 1,966 5.9 -11.8°
Enters shadow 20:45:43 - 188° (S) 2,859 6.7 -12.1°
